Location: Moscow
(30.9132°N, 94.8252°W)
Time: 13:16:39
(UTC+00:00)

Cosmos 1833 Rocket - Pass Details

Date: 15 November 2025
Orbit: 829 x 840 km, 71.0° (Epoch: 06 December)

Event Time Altitude Azimuth Distance (km) Brightness Sun altitude
Rises 00:21:53 0° 339° (NNW) 3,396 5.9 -13.1°
Reaches altitude 10° 00:24:19 10° 339° (NNW) 2,458 5.2 -13.6°
Maximum altitude 00:29:58 85° 252° (WSW) 846 2.7 -14.8°
Drops below altitude 10° 00:35:35 10° 164° (SSE) 2,442 5.1 -16.0°
Sets 00:38:01 0° 163° (SSE) 3,372 5.8 -16.5°
